Location: Newark
(38.0892°N, 27.7378°E)
Time: 03:24:53
(UTC+00:00)

N. Korean satellite - Pass Details

Date: 16 December 2019
Orbit: 454 x 507 km, 97.2° (Epoch: 23 January)

Event Time Altitude Azimuth Distance (km) Brightness Sun altitude
Rises 16:09:20 0° 204° (SSW) 2,595 10.9 -15.0°
Reaches altitude 10° 16:12:03 10° 226° (SW) 1,711 10.4 -15.5°
Maximum altitude 16:14:25 16° 266° (W) 1,366 9.9 -16.0°
Drops below altitude 10° 16:16:47 10° 306° (NW) 1,708 9.8 -16.4°
Sets 16:19:30 0° 329° (NNW) 2,587 10.4 -16.9°
